FDX401 KLAX-KDEN

Flight info

Callsign FDX401
Flight time 1h 44m
Altitude 35000
Route ORCKA5 LAS J146 DICEE BUMMP SSKII4
Aircraft B77L/H-SDE1E2E3FGHIJ2J3J4J5M1RWXY/LB1D1

Departure

Time 2026-04-22 00:07
Airport Los Angeles International Airport (KLAX)

Arrival

Time 2026-04-22 01:51
Airport Denver International Airport (KDEN)
Time Latitude Longitude Altitude Speed Heading
2026-04-21 23:39 33.93411 -118.38773 130 ft 0 kts 174°
2026-04-21 23:58 33.93414 -118.38773 125 ft 3 kts 174°
2026-04-21 23:58 33.93439 -118.38779 126 ft 4 kts 157°
2026-04-21 23:58 33.93457 -118.38793 125 ft 4 kts 95°
2026-04-21 23:59 33.93459 -118.38799 125 ft 0 kts 20°
2026-04-22 00:02 33.93459 -118.38798 130 ft 0 kts 20°
2026-04-22 00:03 33.93479 -118.38794 125 ft 7 kts
2026-04-22 00:03 33.93533 -118.38796 127 ft 8 kts 358°
2026-04-22 00:03 33.93563 -118.38752 126 ft 8 kts 80°
2026-04-22 00:03 33.93571 -118.38685 128 ft 8 kts 82°
2026-04-22 00:04 33.93578 -118.38618 126 ft 8 kts 83°
2026-04-22 00:04 33.93585 -118.38551 130 ft 8 kts 83°
2026-04-22 00:04 33.93592 -118.38483 130 ft 8 kts 83°
2026-04-22 00:04 33.93599 -118.38416 127 ft 8 kts 83°
2026-04-22 00:05 33.93607 -118.38348 126 ft 8 kts 83°
2026-04-22 00:05 33.93633 -118.38291 124 ft 8 kts 30°
2026-04-22 00:05 33.93690 -118.38283 127 ft 8 kts 357°
2026-04-22 00:05 33.93730 -118.38322 126 ft 9 kts 278°
2026-04-22 00:06 33.93721 -118.38399 126 ft 14 kts 260°
2026-04-22 00:06 33.93686 -118.38747 130 ft 76 kts 263°
2026-04-22 00:06 33.93597 -118.39622 126 ft 135 kts 263°
2026-04-22 00:06 33.93478 -118.40932 296 ft 165 kts 262°
2026-04-22 00:07 33.93292 -118.42297 864 ft 168 kts 260°
2026-04-22 00:07 33.93092 -118.43699 1475 ft 173 kts 262°
2026-04-22 00:07 33.92941 -118.45126 2161 ft 169 kts 265°
2026-04-22 00:07 33.92806 -118.46533 2732 ft 168 kts 262°
2026-04-22 00:08 33.92506 -118.47941 2987 ft 186 kts 251°
2026-04-22 00:08 33.92001 -118.49491 3232 ft 209 kts 248°
2026-04-22 00:08 33.91401 -118.51185 3567 ft 227 kts 247°
2026-04-22 00:08 33.90755 -118.52937 4168 ft 234 kts 246°
2026-04-22 00:09 33.90064 -118.54767 4789 ft 245 kts 245°
2026-04-22 00:09 33.89331 -118.56655 5497 ft 251 kts 244°
2026-04-22 00:09 33.88818 -118.57907 6007 ft 252 kts 242°
2026-04-22 00:09 33.87752 -118.60403 7099 ft 252 kts 241°
2026-04-22 00:10 33.86944 -118.62294 7851 ft 255 kts 242°
2026-04-22 00:10 33.86158 -118.64206 8623 ft 256 kts 243°
2026-04-22 00:10 33.85640 -118.65515 9167 ft 257 kts 243°
2026-04-22 00:10 33.84884 -118.67450 9975 ft 257 kts 245°
2026-04-22 00:11 33.84170 -118.69450 10552 ft 265 kts 244°
2026-04-22 00:11 33.83054 -118.71292 10684 ft 288 kts 223°
2026-04-22 00:11 33.81315 -118.72713 10880 ft 315 kts 211°
2026-04-22 00:11 33.79187 -118.73745 11173 ft 340 kts 199°
2026-04-22 00:12 33.76821 -118.74168 11761 ft 358 kts 185°
2026-04-22 00:12 33.74290 -118.73647 12542 ft 378 kts 165°
2026-04-22 00:12 33.72005 -118.72017 13399 ft 398 kts 145°
2026-04-22 00:12 33.70161 -118.69413 14176 ft 417 kts 127°
2026-04-22 00:13 33.68940 -118.66220 14833 ft 434 kts 111°
2026-04-22 00:13 33.68470 -118.62594 15570 ft 447 kts 91°
2026-04-22 00:13 33.68999 -118.58872 16295 ft 455 kts 69°
2026-04-22 00:13 33.70542 -118.55606 16975 ft 457 kts 47°
2026-04-22 00:14 33.72965 -118.53144 17659 ft 452 kts 24°
2026-04-22 00:14 33.75817 -118.51707 18340 ft 449 kts 11°
2026-04-22 00:14 33.78827 -118.50627 18941 ft 453 kts 10°
2026-04-22 00:14 33.81858 -118.49472 19120 ft 458 kts 13°
2026-04-22 00:15 33.84861 -118.48080 19114 ft 461 kts 17°
2026-04-22 00:15 33.87798 -118.46573 19117 ft 461 kts 18°
2026-04-22 00:15 33.90674 -118.44811 19100 ft 468 kts 27°
2026-04-22 00:15 33.93251 -118.42448 19117 ft 474 kts 38°
2026-04-22 00:16 33.95550 -118.39558 19114 ft 480 kts 49°
2026-04-22 00:16 33.97443 -118.36222 19119 ft 482 kts 56°
2026-04-22 00:16 33.99252 -118.32806 19113 ft 483 kts 55°
2026-04-22 00:16 34.01127 -118.29424 19110 ft 483 kts 54°
2026-04-22 00:17 34.03020 -118.26091 19537 ft 488 kts 53°
2026-04-22 00:17 34.04953 -118.22702 20190 ft 492 kts 53°
2026-04-22 00:17 34.06903 -118.19274 20830 ft 496 kts 53°
2026-04-22 00:17 34.08839 -118.15856 21461 ft 500 kts 53°
2026-04-22 00:18 34.10826 -118.12341 22057 ft 505 kts 53°
2026-04-22 00:18 34.12814 -118.08818 22646 ft 510 kts 53°
2026-04-22 00:18 34.14826 -118.05251 23201 ft 514 kts 54°
2026-04-22 00:18 34.16830 -118.01696 23826 ft 517 kts 54°
2026-04-22 00:19 34.18858 -117.98092 24340 ft 520 kts 54°
2026-04-22 00:19 34.20884 -117.94487 24824 ft 525 kts 54°
2026-04-22 00:19 34.22953 -117.90802 25291 ft 529 kts 54°
2026-04-22 00:19 34.25038 -117.87086 25714 ft 534 kts 54°
2026-04-22 00:20 34.27112 -117.83384 26199 ft 538 kts 54°
2026-04-22 00:20 34.29220 -117.79617 26699 ft 542 kts 54°
2026-04-22 00:20 34.31346 -117.75814 27174 ft 545 kts 54°
2026-04-22 00:20 34.33437 -117.72072 27601 ft 549 kts 54°
2026-04-22 00:21 34.35591 -117.68218 28046 ft 554 kts 54°
2026-04-22 00:21 34.37826 -117.64358 28482 ft 557 kts 52°
2026-04-22 00:21 34.40087 -117.60581 28868 ft 561 kts 52°
2026-04-22 00:21 34.42408 -117.56753 29245 ft 565 kts 52°
2026-04-22 00:22 34.44746 -117.52899 29691 ft 568 kts 52°
2026-04-22 00:22 34.47081 -117.49025 30163 ft 569 kts 52°
2026-04-22 00:22 34.49380 -117.45185 30606 ft 568 kts 53°
2026-04-22 00:22 34.51707 -117.41275 31106 ft 567 kts 53°
2026-04-22 00:23 34.54012 -117.37387 31558 ft 567 kts 53°
2026-04-22 00:23 34.56316 -117.33494 31989 ft 567 kts 53°
2026-04-22 00:23 34.58600 -117.29632 32411 ft 567 kts 53°
2026-04-22 00:23 34.60903 -117.25735 32828 ft 567 kts 53°
2026-04-22 00:24 34.63210 -117.21829 33235 ft 567 kts 53°
2026-04-22 00:24 34.65488 -117.17969 33597 ft 566 kts 53°
2026-04-22 00:24 34.67785 -117.14074 33986 ft 565 kts 53°
2026-04-22 00:24 34.70082 -117.10174 34393 ft 563 kts 53°
2026-04-22 00:25 34.72346 -117.06327 34820 ft 561 kts 53°
2026-04-22 00:25 34.74597 -117.02497 35024 ft 563 kts 53°
2026-04-22 00:25 34.76893 -116.98587 34974 ft 569 kts 53°
2026-04-22 00:26 34.81536 -116.90666 34983 ft 573 kts 53°
2026-04-22 00:26 34.86126 -116.82813 34981 ft 569 kts 53°
2026-04-22 00:27 34.90688 -116.75000 34990 ft 566 kts 53°
2026-04-22 00:27 34.95712 -116.67638 34985 ft 562 kts 45°
2026-04-22 00:28 35.01047 -116.60735 34961 ft 562 kts 44°
2026-04-22 00:28 35.06450 -116.53728 34945 ft 565 kts 45°
2026-04-22 00:29 35.11777 -116.46714 34908 ft 568 kts 45°
2026-04-22 00:29 35.17153 -116.39580 34974 ft 570 kts 45°
2026-04-22 00:30 35.22521 -116.32445 34927 ft 573 kts 45°
2026-04-22 00:30 35.27956 -116.25214 34903 ft 574 kts 45°
2026-04-22 00:31 35.33330 -116.18051 34899 ft 573 kts 46°
2026-04-22 00:31 35.38707 -116.10867 34891 ft 573 kts 46°
2026-04-22 00:32 35.44098 -116.03649 34896 ft 572 kts 46°
2026-04-22 00:32 35.49471 -115.96441 34916 ft 571 kts 46°
2026-04-22 00:33 35.54802 -115.89272 34910 ft 569 kts 46°
2026-04-22 00:33 35.60153 -115.82062 34912 ft 568 kts 46°
2026-04-22 00:34 35.65446 -115.74902 34924 ft 567 kts 46°
2026-04-22 00:34 35.70726 -115.67653 34920 ft 567 kts 47°
2026-04-22 00:35 35.75948 -115.60446 34907 ft 566 kts 47°
2026-04-22 00:35 35.81206 -115.53190 34921 ft 566 kts 47°
2026-04-22 00:36 35.86454 -115.45940 34907 ft 567 kts 47°
2026-04-22 00:36 35.91721 -115.38647 34892 ft 567 kts 47°
2026-04-22 00:37 35.96942 -115.31401 34867 ft 567 kts 47°
2026-04-22 00:37 36.02182 -115.24114 34851 ft 566 kts 47°
2026-04-22 00:38 36.06978 -115.16403 34853 ft 565 kts 59°
2026-04-22 00:38 36.10619 -115.07874 34852 ft 562 kts 70°
2026-04-22 00:39 36.13314 -114.98861 34762 ft 560 kts 73°
2026-04-22 00:39 36.16005 -114.89782 34757 ft 560 kts 72°
2026-04-22 00:40 36.18750 -114.80796 34763 ft 560 kts 72°
2026-04-22 00:40 36.21527 -114.71754 34742 ft 560 kts 72°
2026-04-22 00:41 36.24282 -114.62774 34721 ft 560 kts 72°
2026-04-22 00:41 36.27041 -114.53734 34716 ft 560 kts 72°
2026-04-22 00:42 36.29783 -114.44718 34731 ft 560 kts 72°
2026-04-22 00:42 36.32518 -114.35695 34722 ft 560 kts 72°
2026-04-22 00:43 36.35245 -114.26672 34733 ft 560 kts 72°
2026-04-22 00:43 36.37980 -114.17591 34749 ft 559 kts 72°
2026-04-22 00:44 36.40703 -114.08524 34752 ft 559 kts 72°
2026-04-22 00:44 36.43404 -113.99500 34784 ft 559 kts 73°
2026-04-22 00:45 36.46104 -113.90447 34774 ft 559 kts 73°
2026-04-22 00:45 36.48796 -113.81394 34796 ft 559 kts 73°
2026-04-22 00:46 36.51496 -113.72286 34781 ft 559 kts 73°
2026-04-22 00:46 36.54165 -113.63251 34813 ft 558 kts 73°
2026-04-22 00:47 36.56832 -113.54196 34810 ft 557 kts 73°
2026-04-22 00:47 36.59480 -113.45173 34830 ft 555 kts 73°
2026-04-22 00:48 36.62126 -113.36132 34840 ft 554 kts 73°
2026-04-22 00:48 36.64736 -113.27152 34846 ft 552 kts 73°
2026-04-22 00:49 36.67323 -113.18179 34878 ft 552 kts 73°
2026-04-22 00:49 36.69917 -113.09146 34901 ft 552 kts 73°
2026-04-22 00:50 36.72507 -113.00113 34936 ft 551 kts 73°
2026-04-22 00:50 36.75070 -112.91141 34932 ft 552 kts 73°
2026-04-22 00:51 36.77630 -112.82153 34932 ft 552 kts 73°
2026-04-22 00:51 36.80189 -112.73137 34917 ft 552 kts 73°
2026-04-22 00:52 36.82750 -112.64085 34899 ft 551 kts 73°
2026-04-22 00:52 36.85286 -112.55090 34891 ft 550 kts 73°
2026-04-22 00:53 36.87828 -112.46048 34884 ft 550 kts 73°
2026-04-22 00:53 36.90360 -112.37028 34890 ft 548 kts 73°
2026-04-22 00:54 36.92872 -112.28076 34896 ft 546 kts 73°
2026-04-22 00:54 36.94959 -112.20623 34905 ft 546 kts 73°
2026-04-22 00:55 36.97454 -112.11678 34877 ft 545 kts 73°
2026-04-22 00:55 37.01583 -111.96810 34866 ft 542 kts 73°
2026-04-22 00:56 37.03643 -111.89361 34847 ft 541 kts 73°
2026-04-22 00:56 37.06088 -111.80491 34852 ft 540 kts 73°
2026-04-22 00:57 37.08520 -111.71640 34817 ft 537 kts 73°
2026-04-22 00:57 37.10938 -111.62813 34818 ft 535 kts 73°
2026-04-22 00:58 37.13347 -111.53985 34879 ft 533 kts 73°
2026-04-22 00:58 37.15740 -111.45185 34875 ft 532 kts 73°
2026-04-22 00:59 37.18119 -111.36417 34851 ft 531 kts 73°
2026-04-22 00:59 37.20481 -111.27671 34832 ft 532 kts 73°
2026-04-22 01:00 37.23139 -111.18988 34804 ft 534 kts 65°
2026-04-22 01:00 37.26472 -111.10687 34808 ft 535 kts 63°
2026-04-22 01:01 37.29855 -111.02383 34795 ft 534 kts 64°
2026-04-22 01:01 37.33201 -110.94033 34790 ft 532 kts 64°
2026-04-22 01:02 37.36488 -110.85729 34775 ft 531 kts 64°
2026-04-22 01:02 37.39774 -110.77389 34788 ft 530 kts 64°
2026-04-22 01:03 37.43027 -110.69119 34795 ft 529 kts 64°
2026-04-22 01:03 37.46278 -110.60841 34787 ft 529 kts 64°
2026-04-22 01:04 37.49544 -110.52499 34798 ft 528 kts 64°
2026-04-22 01:04 37.52779 -110.44217 34803 ft 528 kts 64°
2026-04-22 01:05 37.56009 -110.35925 34816 ft 527 kts 64°
2026-04-22 01:05 37.59239 -110.27611 34823 ft 526 kts 64°
2026-04-22 01:06 37.62438 -110.19353 34843 ft 524 kts 64°
2026-04-22 01:06 37.65619 -110.11122 34843 ft 523 kts 64°
2026-04-22 01:07 37.68802 -110.02860 34865 ft 521 kts 64°
2026-04-22 01:07 37.71950 -109.94671 34867 ft 520 kts 64°
2026-04-22 01:08 37.75092 -109.86475 34879 ft 519 kts 64°
2026-04-22 01:08 37.78227 -109.78275 34890 ft 519 kts 64°
2026-04-22 01:09 37.81367 -109.70042 34884 ft 518 kts 64°
2026-04-22 01:09 37.84486 -109.61838 34941 ft 517 kts 64°
2026-04-22 01:10 37.87588 -109.53661 34926 ft 517 kts 64°
2026-04-22 01:10 37.90688 -109.45464 34902 ft 517 kts 64°
2026-04-22 01:11 37.93799 -109.37217 34898 ft 516 kts 65°
2026-04-22 01:11 37.96886 -109.29013 34909 ft 517 kts 65°
2026-04-22 01:12 37.99984 -109.20755 34901 ft 518 kts 65°
2026-04-22 01:12 38.03068 -109.12512 34897 ft 519 kts 65°
2026-04-22 01:13 38.06150 -109.04251 34889 ft 519 kts 65°
2026-04-22 01:13 38.09248 -108.95931 34890 ft 519 kts 65°
2026-04-22 01:14 38.12377 -108.87713 34890 ft 519 kts 64°
2026-04-22 01:14 38.15633 -108.79513 34894 ft 520 kts 64°
2026-04-22 01:15 38.18904 -108.71258 34890 ft 520 kts 64°
2026-04-22 01:15 38.22117 -108.63067 34903 ft 519 kts 64°
2026-04-22 01:16 38.25311 -108.54874 34917 ft 518 kts 64°
2026-04-22 01:16 38.28520 -108.46623 34912 ft 517 kts 65°
2026-04-22 01:17 38.31694 -108.38447 34910 ft 517 kts 65°
2026-04-22 01:17 38.34868 -108.30247 34913 ft 516 kts 65°
2026-04-22 01:18 38.38043 -108.22022 34955 ft 516 kts 65°
2026-04-22 01:18 38.41196 -108.13832 34995 ft 515 kts 65°
2026-04-22 01:19 38.44342 -108.05642 35034 ft 515 kts 65°
2026-04-22 01:19 38.47492 -107.97402 35063 ft 516 kts 65°
2026-04-22 01:20 38.50595 -107.89188 35068 ft 516 kts 65°
2026-04-22 01:20 38.53701 -107.80937 34897 ft 516 kts 65°
2026-04-22 01:21 38.56811 -107.72663 34905 ft 517 kts 65°
2026-04-22 01:21 38.59933 -107.64338 34882 ft 517 kts 65°
2026-04-22 01:22 38.63030 -107.56057 34914 ft 517 kts 65°
2026-04-22 01:22 38.66114 -107.47797 34913 ft 517 kts 65°
2026-04-22 01:23 38.69256 -107.39489 34919 ft 517 kts 65°
2026-04-22 01:23 38.72382 -107.31252 34941 ft 516 kts 65°
2026-04-22 01:24 38.75516 -107.22957 34953 ft 516 kts 65°
2026-04-22 01:24 38.78621 -107.14697 34956 ft 516 kts 65°
2026-04-22 01:25 38.81742 -107.06369 34961 ft 516 kts 65°
2026-04-22 01:25 38.84840 -106.98083 34965 ft 516 kts 65°
2026-04-22 01:26 38.87935 -106.89782 34972 ft 516 kts 65°
2026-04-22 01:26 38.91007 -106.81521 34986 ft 506 kts 65°
2026-04-22 01:27 38.92508 -106.77478 34990 ft 493 kts 65°
2026-04-22 01:27 38.93951 -106.73583 34678 ft 487 kts 65°
2026-04-22 01:27 38.95403 -106.69660 34237 ft 484 kts 65°
2026-04-22 01:27 38.96844 -106.65759 33774 ft 480 kts 65°
2026-04-22 01:28 38.98278 -106.61873 33316 ft 477 kts 65°
2026-04-22 01:28 38.99683 -106.58065 32881 ft 473 kts 65°
2026-04-22 01:28 39.01085 -106.54250 32472 ft 469 kts 65°
2026-04-22 01:28 39.02460 -106.50496 32074 ft 466 kts 65°
2026-04-22 01:29 39.03840 -106.46721 31662 ft 463 kts 65°
2026-04-22 01:29 39.05199 -106.42999 31264 ft 460 kts 65°
2026-04-22 01:29 39.06553 -106.39283 30829 ft 456 kts 66°
2026-04-22 01:29 39.07897 -106.35594 30444 ft 453 kts 66°
2026-04-22 01:30 39.09224 -106.31949 29984 ft 451 kts 65°
2026-04-22 01:30 39.10560 -106.28277 29514 ft 449 kts 65°
2026-04-22 01:30 39.11876 -106.24651 29052 ft 446 kts 66°
2026-04-22 01:30 39.13179 -106.21059 28604 ft 443 kts 66°
2026-04-22 01:31 39.14478 -106.17471 28146 ft 440 kts 66°
2026-04-22 01:31 39.15769 -106.13901 27675 ft 436 kts 66°
2026-04-22 01:31 39.17032 -106.10395 27232 ft 433 kts 66°
2026-04-22 01:31 39.18298 -106.06871 26770 ft 430 kts 66°
2026-04-22 01:32 39.19554 -106.03372 26310 ft 427 kts 66°
2026-04-22 01:32 39.20798 -105.99903 25862 ft 424 kts 66°
2026-04-22 01:32 39.22015 -105.96505 25417 ft 421 kts 66°
2026-04-22 01:32 39.23244 -105.93073 24896 ft 418 kts 66°
2026-04-22 01:33 39.24466 -105.89662 24481 ft 416 kts 66°
2026-04-22 01:33 39.25671 -105.86317 24072 ft 414 kts 66°
2026-04-22 01:33 39.26886 -105.82950 23662 ft 412 kts 66°
2026-04-22 01:33 39.28097 -105.79590 23191 ft 410 kts 66°
2026-04-22 01:34 39.29294 -105.76263 22741 ft 407 kts 66°
2026-04-22 01:34 39.30470 -105.72990 22321 ft 404 kts 66°
2026-04-22 01:34 39.31650 -105.69699 21927 ft 401 kts 66°
2026-04-22 01:34 39.32820 -105.66437 21517 ft 398 kts 66°
2026-04-22 01:35 39.33982 -105.63243 21113 ft 395 kts 65°
2026-04-22 01:35 39.35158 -105.60031 20698 ft 392 kts 65°
2026-04-22 01:35 39.36320 -105.56857 20304 ft 389 kts 65°
2026-04-22 01:35 39.37467 -105.53714 19905 ft 387 kts 65°
2026-04-22 01:36 39.38619 -105.50552 19505 ft 383 kts 65°
2026-04-22 01:36 39.39729 -105.47503 19204 ft 377 kts 65°
2026-04-22 01:36 39.40837 -105.44453 19059 ft 367 kts 66°
2026-04-22 01:36 39.41923 -105.41541 18858 ft 359 kts 62°
2026-04-22 01:37 39.43251 -105.38830 18639 ft 352 kts 55°
2026-04-22 01:37 39.44693 -105.36282 18424 ft 346 kts 54°
2026-04-22 01:37 39.46110 -105.33817 18171 ft 343 kts 55°
2026-04-22 01:37 39.47524 -105.31313 17938 ft 343 kts 56°
2026-04-22 01:38 39.48916 -105.28801 17713 ft 342 kts 56°
2026-04-22 01:38 39.50296 -105.26275 17496 ft 341 kts 56°
2026-04-22 01:38 39.51640 -105.23799 17279 ft 339 kts 56°
2026-04-22 01:38 39.52993 -105.21298 17039 ft 337 kts 56°
2026-04-22 01:39 39.54309 -105.18785 16836 ft 335 kts 60°
2026-04-22 01:39 39.55385 -105.16174 16713 ft 329 kts 65°
2026-04-22 01:39 39.56034 -105.14397 16633 ft 326 kts 66°
2026-04-22 01:39 39.57292 -105.10823 16462 ft 328 kts 66°
2026-04-22 01:40 39.58249 -105.08115 16355 ft 331 kts 66°
2026-04-22 01:40 39.58894 -105.06307 16266 ft 332 kts 66°
2026-04-22 01:40 39.59871 -105.03588 16138 ft 331 kts 66°
2026-04-22 01:40 39.60854 -105.00873 16011 ft 331 kts 65°
2026-04-22 01:41 39.61824 -104.98205 16007 ft 330 kts 66°
2026-04-22 01:41 39.62808 -104.95504 15882 ft 329 kts 65°
2026-04-22 01:41 39.63786 -104.92818 15767 ft 328 kts 66°
2026-04-22 01:41 39.64750 -104.90172 15638 ft 327 kts 66°
2026-04-22 01:42 39.65724 -104.87492 15509 ft 326 kts 67°
2026-04-22 01:42 39.66696 -104.84819 15371 ft 325 kts 66°
2026-04-22 01:42 39.67653 -104.82186 15245 ft 325 kts 67°
2026-04-22 01:42 39.68614 -104.79537 15116 ft 321 kts 66°
2026-04-22 01:43 39.69599 -104.76974 14971 ft 314 kts 59°
2026-04-22 01:43 39.71034 -104.74822 14725 ft 317 kts 44°
2026-04-22 01:43 39.72644 -104.72865 14455 ft 316 kts 45°
2026-04-22 01:43 39.74205 -104.70893 14190 ft 316 kts 46°
2026-04-22 01:44 39.75764 -104.68875 13939 ft 316 kts 47°
2026-04-22 01:44 39.77320 -104.66846 13659 ft 315 kts 47°
2026-04-22 01:44 39.78783 -104.64762 13355 ft 312 kts 56°
2026-04-22 01:44 39.79943 -104.62468 13128 ft 309 kts 61°
2026-04-22 01:45 39.81051 -104.60104 12861 ft 307 kts 60°
2026-04-22 01:45 39.82185 -104.57741 12599 ft 305 kts 60°
2026-04-22 01:45 39.83329 -104.55407 12342 ft 304 kts 59°
2026-04-22 01:45 39.84683 -104.53378 12056 ft 301 kts 35°
2026-04-22 01:46 39.86601 -104.52318 11827 ft 301 kts 10°
2026-04-22 01:46 39.88672 -104.52167 11633 ft 295 kts 360°
2026-04-22 01:46 39.90722 -104.52167 11307 ft 291 kts 360°
2026-04-22 01:46 39.92721 -104.52160 11049 ft 283 kts
2026-04-22 01:47 39.94650 -104.52416 10597 ft 278 kts 339°
2026-04-22 01:47 39.96222 -104.53763 10159 ft 272 kts 308°
2026-04-22 01:47 39.97206 -104.55814 9706 ft 268 kts 288°
2026-04-22 01:47 39.97779 -104.58106 9238 ft 262 kts 283°
2026-04-22 01:48 39.98303 -104.60368 8789 ft 257 kts 283°
2026-04-22 01:48 39.98465 -104.62593 8398 ft 244 kts 254°
2026-04-22 01:48 39.97750 -104.64486 8066 ft 227 kts 220°
2026-04-22 01:48 39.96461 -104.65437 7778 ft 210 kts 192°
2026-04-22 01:49 39.95052 -104.65730 7413 ft 203 kts 185°
2026-04-22 01:49 39.93696 -104.65912 7089 ft 187 kts 182°
2026-04-22 01:49 39.92426 -104.65946 6724 ft 177 kts 180°
2026-04-22 01:49 39.91195 -104.65956 6484 ft 176 kts 181°
2026-04-22 01:50 39.89972 -104.65970 6269 ft 178 kts 180°
2026-04-22 01:50 39.88743 -104.65985 5999 ft 172 kts 179°
2026-04-22 01:50 39.87575 -104.65999 5716 ft 165 kts 178°
2026-04-22 01:50 39.86452 -104.66006 5533 ft 159 kts 178°
2026-04-22 01:51 39.85395 -104.66008 5397 ft 140 kts 179°
2026-04-22 01:51 39.84602 -104.66029 5410 ft 87 kts 181°
2026-04-22 01:51 39.84172 -104.66033 5417 ft 48 kts 180°
2026-04-22 01:51 39.83864 -104.66036 5416 ft 40 kts 188°
2026-04-22 01:52 39.83639 -104.66180 5414 ft 27 kts 210°
2026-04-22 01:52 39.83476 -104.66260 5433 ft 25 kts 182°
2026-04-22 01:52 39.83302 -104.66264 5438 ft 25 kts 180°
2026-04-22 01:52 39.83127 -104.66264 5443 ft 21 kts 179°
2026-04-22 01:53 39.83017 -104.66262 5447 ft 14 kts 179°
2026-04-22 01:53 39.82937 -104.66309 5444 ft 14 kts 254°
2026-04-22 01:53 39.82932 -104.66424 5434 ft 17 kts 268°
2026-04-22 01:53 39.82933 -104.66582 5424 ft 19 kts 271°
2026-04-22 01:54 39.82935 -104.66762 5423 ft 21 kts 270°
2026-04-22 01:54 39.82936 -104.66953 5416 ft 17 kts 270°
2026-04-22 01:54 39.82939 -104.67100 5404 ft 16 kts 281°
2026-04-22 01:54 39.82974 -104.67223 5392 ft 10 kts 290°
2026-04-22 01:55 39.82999 -104.67311 5384 ft 7 kts 290°
2026-04-22 01:55 39.83039 -104.67342 5387 ft 7 kts 354°
2026-04-22 01:55 39.83086 -104.67344 5390 ft 2 kts 360°
2026-04-22 01:55 39.83093 -104.67344 5390 ft 0 kts 360°